Flag for Switzerland Weather past 2 weeks in Chur, Graubünden, Switzerland

Now
46 °F

Cool.


Feels Like: 44 °F
Forecast: 27 / 48 °F
Wind: 3 mph from South

Location: Chur-Ems

Current Time: Dec 19, 2014 at 6:32:57 PM

Latest Report: Dec 19, 2014 at 5:00 PM


Visibility: N/A

Pressure: 30.19 "Hg

Humidity: 85%

Dew point: 41 °F

Location of ChurLocation

Historic Weather in Chur — Graph

°F

Chur temperature yesterday

Maximum temperature yesterday: 44 °F (at 9:00 PM)
Minimum temperature yesterday: 35 °F (at 5:00 AM)
Average temperature yesterday: 40 °F

Past Weeks' High & Low Weather Summary

 TemperatureHumidityPressure
High57 °F (Dec 13, 2:00 PM)97% (Dec 16, 8:00 AM)30.49 "Hg (Dec 16, 8:00 AM)
Low27 °F (Dec 10, 8:00 AM)30% (Dec 12, 3:00 PM)29.90 "Hg (Dec 17, 2:00 PM)
Average40 °F76%30.14 "Hg
* Reported Dec 4 5:00 PM — Dec 19 5:00 PM, Chur, Weather by CustomWeather, © 2014

Note: Actual official high and low records may vary slightly from our data, if they occured in-between our weather recording intervals... More about our weather records

Advertising

Chur weather history for previous 24 hours

 ConditionsComfort  
Time TempWeatherWind HumidityBarometerVisibility
5:00 PM
Dec 19
46 °FCool.3 mph85%30.19 "HgN/A
4:00 PM47 °FOvercast.2 mph82%30.19 "Hg12 mi
3:00 PM49 °FCool.1 mph75%30.19 "HgN/A
2:00 PM49 °FCool.2 mph75%30.20 "HgN/A
1:00 PM48 °FOvercast.5 mph71%30.23 "Hg16 mi
12:00 PM47 °FCool.6 mph74%30.26 "HgN/A
11:00 AM43 °FQuite cool.3 mph83%30.29 "HgN/A
10:00 AM40 °FChilly.5 mph88%30.31 "HgN/A
9:00 AM39 °FChilly.6 mph88%30.32 "HgN/A
8:00 AM38 °FChilly.5 mph91%30.32 "HgN/A
7:00 AM39 °FFog.6 mph89%30.32 "Hg6 mi
6:00 AM38 °FChilly.5 mph91%30.32 "HgN/A
5:00 AM39 °FChilly.5 mph91%30.33 "HgN/A
3:00 AM38 °FChilly.2 mph94%30.34 "HgN/A
2:00 AM40 °FQuite cool.6 mph91%30.32 "HgN/A
1:00 AM39 °FClear.3 mph93%30.34 "Hg9 mi
12:00 AM40 °FChilly.3 mph94%30.33 "HgN/A
11:00 PM
Dec 18
42 °FQuite cool.2 mph91%30.32 "HgN/A
9:00 PM44 °FQuite cool.8 mph90%30.30 "HgN/A
8:00 PM42 °FQuite cool.2 mph94%30.28 "HgN/A
7:00 PM43 °FFog.6 mph92%30.27 "Hg3 mi
6:00 PM42 °FQuite cool.3 mph94%30.27 "HgN/A
Weather by CustomWeather, © 2014

See weather overviewHow to use our weather pages